| time (UTC) | temp C | wind direction | speed KPH | gust KPH | rain 1hr cm | rain 24hr cm | rain mn cm | humidity % | barometer mb |
| 20260505010357 | 21 | 206 | 1.6 | 4.8 | 0.00 | 0.00 | 0.00 | 61 | 1004.0 |
| 20260505005853 | 21 | 201 | 3.2 | 6.4 | 0.00 | 0.00 | 0.00 | 60 | 1004.2 |
| 20260505005350 | 21 | 203 | 0.0 | 4.8 | 0.00 | 0.00 | 0.00 | 59 | 1004.2 |
| 20260505004848 | 21 | 195 | 1.6 | 4.8 | 0.00 | 0.00 | 0.00 | 60 | 1004.3 |
| 20260505004343 | 21 | 215 | 1.6 | 9.7 | 0.00 | 0.00 | 0.00 | 59 | 1004.1 |
| 20260505003841 | 21 | 211 | 4.8 | 4.8 | 0.00 | 0.00 | 0.00 | 58 | 1004.1 |
| 20260505003338 | 22 | 208 | 3.2 | 8.0 | 0.00 | 0.00 | 0.00 | 57 | 1004.2 |
| 20260505002834 | 22 | 214 | 4.8 | 6.4 | 0.00 | 0.00 | 0.00 | 57 | 1004.3 |
| 20260505002331 | 22 | 215 | 6.4 | 8.0 | 0.00 | 0.00 | 0.00 | 57 | 1004.1 |
| 20260505001830 | 22 | 211 | 6.4 | 6.4 | 0.00 | 0.00 | 0.00 | 56 | 1004.4 |
| 20260505001326 | 22 | 345 | 0.0 | 3.2 | 0.00 | 0.00 | 0.00 | 56 | 1004.6 |
| 20260505000824 | 22 | 270 | 0.0 | 8.0 | 0.00 | 0.00 | 0.00 | 55 | 1004.3 |
| 20260505000321 | 22 | 105 | 6.4 | 8.0 | 0.00 | 0.00 | 0.00 | 55 | 1004.6 |
| 20260504235818 | 22 | 165 | 3.2 | 6.4 | 0.00 | 0.00 | 0.00 | 54 | 1004.6 |
| 20260504235315 | 22 | 43 | 8.0 | 8.0 | 0.00 | 0.00 | 0.00 | 55 | 1004.6 |
| 20260504234811 | 23 | 253 | 3.2 | 8.0 | 0.00 | 0.00 | 0.00 | 55 | 1004.6 |
| 20260504234309 | 23 | 228 | 3.2 | 3.2 | 0.00 | 0.00 | 0.00 | 54 | 1004.7 |
| 20260504233805 | 23 | 140 | 3.2 | 8.0 | 0.00 | 0.00 | 0.00 | 53 | 1004.7 |
| 20260504233301 | 23 | 270 | 1.6 | 9.7 | 0.00 | 0.00 | 0.00 | 53 | 1004.8 |
| 20260504232758 | 23 | 62 | 0.0 | 11.3 | 0.00 | 0.00 | 0.00 | 54 | 1004.7 |
| 20260504232255 | 23 | 12 | 1.6 | 9.7 | 0.00 | 0.00 | 0.00 | 55 | 1004.5 |
| 20260504231752 | 23 | 18 | 3.2 | 9.7 | 0.00 | 0.00 | 0.00 | 57 | 1004.6 |
| 20260504231248 | 23 | 4 | 3.2 | 8.0 | 0.00 | 0.00 | 0.00 | 58 | 1004.8 |
| 20260504230744 | 23 | 209 | 3.2 | 8.0 | 0.00 | 0.00 | 0.00 | 59 | 1004.7 |
| 20260504230243 | 23 | 215 | 0.0 | 8.0 | 0.00 | 0.00 | 0.00 | 61 | 1004.7 |
| 20260504225741 | 22 | 225 | 4.8 | 8.0 | 0.00 | 0.00 | 0.00 | 61 | 1004.8 |
| 20260504225237 | 22 | 188 | 0.0 | 4.8 | 0.00 | 0.00 | 0.00 | 61 | 1005.0 |
| 20260504224734 | 22 | 173 | 1.6 | 6.4 | 0.00 | 0.00 | 0.00 | 61 | 1005.0 |
| 20260504224231 | 23 | 243 | 0.0 | 4.8 | 0.00 | 0.00 | 0.00 | 60 | 1004.8 |
| 20260504223728 | 23 | 248 | 3.2 | 6.4 | 0.00 | 0.00 | 0.00 | 60 | 1005.0 |
| 20260504223223 | 23 | 214 | 6.4 | 8.0 | 0.00 | 0.00 | 0.00 | 58 | 1005.1 |
| 20260504222721 | 23 | 220 | 3.2 | 6.4 | 0.00 | 0.00 | 0.00 | 59 | 1005.2 |
| 20260504222218 | 23 | 55 | 0.0 | 3.2 | 0.00 | 0.00 | 0.00 | 59 | 1005.1 |
| 20260504221715 | 23 | 345 | 0.0 | 1.6 | 0.00 | 0.00 | 0.00 | 60 | 1005.1 |
| 20260504221212 | 23 | 187 | 0.0 | 6.4 | 0.00 | 0.00 | 0.00 | 59 | 1005.0 |
| 20260504220708 | 23 | 199 | 6.4 | 9.7 | 0.00 | 0.00 | 0.00 | 58 | 1004.8 |
| 20260504220206 | 23 | 203 | 8.0 | 8.0 | 0.00 | 0.00 | 0.00 | 58 | 1005.1 |
| 20260504215702 | 23 | 35 | 0.0 | 4.8 | 0.00 | 0.00 | 0.00 | 58 | 1005.5 |
| 20260504215200 | 23 | 261 | 0.0 | 9.7 | 0.00 | 0.00 | 0.00 | 59 | 1005.6 |
| 20260504214655 | 23 | 261 | 0.0 | 6.4 | 0.00 | 0.00 | 0.00 | 59 | 1005.6 |
| 20260504214152 | 23 | 71 | 1.6 | 11.3 | 0.00 | 0.00 | 0.00 | 58 | 1005.6 |
| 20260504213648 | 23 | 354 | 1.6 | 4.8 | 0.00 | 0.00 | 0.00 | 59 | 1005.6 |
| 20260504213145 | 23 | 53 | 3.2 | 6.4 | 0.00 | 0.00 | 0.00 | 59 | 1005.6 |
| 20260504212642 | 23 | 83 | 1.6 | 4.8 | 0.00 | 0.00 | 0.00 | 58 | 1005.5 |
| 20260504212138 | 23 | 15 | 0.0 | 4.8 | 0.00 | 0.00 | 0.00 | 59 | 1005.7 |
| 20260504211636 | 23 | 57 | 0.0 | 4.8 | 0.00 | 0.00 | 0.00 | 60 | 1006.0 |
| 20260504211132 | 23 | 120 | 1.6 | 9.7 | 0.00 | 0.00 | 0.00 | 57 | 1006.3 |
| 20260504210630 | 23 | 98 | 1.6 | 8.0 | 0.00 | 0.00 | 0.00 | 58 | 1006.0 |
| 20260504210126 | 23 | 105 | 1.6 | 6.4 | 0.00 | 0.00 | 0.00 | 58 | 1006.3 |
| 20260504205624 | 23 | 35 | 0.0 | 6.4 | 0.00 | 0.00 | 0.00 | 58 | 1006.1 |
| 20260504205121 | 23 | 15 | 1.6 | 6.4 | 0.00 | 0.00 | 0.00 | 60 | 1006.1 |
| 20260504204620 | 23 | 154 | 0.0 | 4.8 | 0.00 | 0.00 | 0.00 | 63 | 1006.4 |
| 20260504204118 | 22 | 21 | 3.2 | 4.8 | 0.00 | 0.00 | 0.00 | 59 | 1006.5 |
| 20260504203617 | 22 | 35 | 6.4 | 6.4 | 0.00 | 0.00 | 0.00 | 59 | 1006.4 |
| 20260504203114 | 22 | 270 | 1.6 | 6.4 | 0.00 | 0.00 | 0.00 | 59 | 1006.2 |
| 20260504202609 | 23 | 21 | 3.2 | 8.0 | 0.00 | 0.00 | 0.00 | 60 | 1006.3 |
| 20260504202106 | 23 | 90 | 0.0 | 11.3 | 0.00 | 0.00 | 0.00 | 58 | 1006.3 |
| 20260504201602 | 23 | 73 | 0.0 | 8.0 | 0.00 | 0.00 | 0.00 | 59 | 1006.3 |
| 20260504201100 | 23 | 164 | 0.0 | 9.7 | 0.00 | 0.00 | 0.00 | 60 | 1006.5 |
| 20260504200556 | 23 | 203 | 9.7 | 11.3 | 0.00 | 0.00 | 0.00 | 61 | 1006.5 |
| 20260504200053 | 22 | 66 | 4.8 | 6.4 | 0.00 | 0.00 | 0.00 | 62 | 1006.7 |
| 20260504195549 | 22 | 106 | 0.0 | 6.4 | 0.00 | 0.00 | 0.00 | 62 | 1006.7 |
| 20260504195046 | 22 | 65 | 3.2 | 6.4 | 0.00 | 0.00 | 0.00 | 67 | 1007.0 |
| 20260504194543 | 22 | 43 | 6.4 | 6.4 | 0.00 | 0.00 | 0.00 | 65 | 1007.1 |
| 20260504194038 | 21 | 213 | 8.0 | 12.9 | 0.00 | 0.00 | 0.00 | 65 | 1007.3 |
| 20260504193535 | 21 | 213 | 8.0 | 8.0 | 0.00 | 0.00 | 0.00 | 65 | 1007.2 |
| 20260504193034 | 21 | 171 | 0.0 | 4.8 | 0.00 | 0.00 | 0.00 | 63 | 1006.9 |
| 20260504192532 | 22 | 0 | 0.0 | 3.2 | 0.00 | 0.00 | 0.00 | 70 | 1007.8 |
| 20260504192029 | 21 | 8 | 0.0 | 3.2 | 0.00 | 0.00 | 0.00 | 68 | 1007.8 |
| 20260504191527 | 21 | 218 | 3.2 | 3.2 | 0.00 | 0.00 | 0.00 | 66 | 1007.6 |
| 20260504191023 | 20 | 74 | 0.0 | 3.2 | 0.00 | 0.00 | 0.00 | 68 | 1007.8 |
| 20260504190519 | 20 | 352 | 0.0 | 6.4 | 0.00 | 0.00 | 0.00 | 68 | 1008.0 |
| 20260504190015 | 20 | 173 | 1.6 | 8.0 | 0.00 | 0.00 | 0.00 | 67 | 1008.2 |
| 20260504185513 | 20 | 22 | 3.2 | 4.8 | 0.00 | 0.00 | 0.00 | 68 | 1008.2 |
| 20260504185009 | 20 | 30 | 4.8 | 11.3 | 0.00 | 0.00 | 0.00 | 66 | 1008.1 |
| 20260504184504 | 20 | 61 | 3.2 | 4.8 | 0.00 | 0.00 | 0.00 | 67 | 1008.1 |
| 20260504184000 | 20 | 47 | 4.8 | 11.3 | 0.00 | 0.00 | 0.00 | 67 | 1008.0 |
| 20260504183457 | 21 | 43 | 9.7 | 9.7 | 0.00 | 0.00 | 0.00 | 64 | 1007.8 |
| 20260504182955 | 21 | 180 | 1.6 | 9.7 | 0.00 | 0.00 | 0.00 | 64 | 1007.5 |
| 20260504182452 | 21 | 99 | 0.0 | 6.4 | 0.00 | 0.00 | 0.00 | 65 | 1007.0 |
| 20260504181949 | 21 | 114 | 1.6 | 6.4 | 0.00 | 0.00 | 0.00 | 61 | 1007.2 |
| 20260504181446 | 22 | 120 | 1.6 | 9.7 | 0.00 | 0.00 | 0.00 | 61 | 1006.9 |
| 20260504180945 | 22 | 218 | 8.0 | 17.7 | 0.00 | 0.00 | 0.00 | 61 | 1006.8 |
| 20260504180443 | 21 | 6 | 4.8 | 17.7 | 0.00 | 0.00 | 0.00 | 62 | 1006.9 |
| 20260504175941 | 21 | 45 | 4.8 | 8.0 | 0.00 | 0.00 | 0.00 | 64 | 1006.8 |
| 20260504175438 | 21 | 177 | 4.8 | 9.7 | 0.00 | 0.00 | 0.00 | 66 | 1006.9 |
| 20260504174936 | 21 | 210 | 4.8 | 8.0 | 0.00 | 0.00 | 0.00 | 65 | 1006.7 |
| 20260504174433 | 21 | 176 | 9.7 | 12.9 | 0.00 | 0.00 | 0.00 | 66 | 1007.2 |
| 20260504173930 | 21 | 32 | 0.0 | 8.0 | 0.00 | 0.00 | 0.00 | 66 | 1007.2 |
| 20260504173426 | 20 | 71 | 3.2 | 9.7 | 0.00 | 0.00 | 0.00 | 65 | 1007.3 |
| 20260504172924 | 21 | 65 | 0.0 | 8.0 | 0.00 | 0.00 | 0.00 | 65 | 1007.1 |
| 20260504172420 | 21 | 69 | 0.0 | 4.8 | 0.00 | 0.00 | 0.00 | 66 | 1006.6 |
| 20260504171917 | 20 | 180 | 1.6 | 9.7 | 0.00 | 0.00 | 0.00 | 66 | 1007.1 |
| 20260504171414 | 20 | 249 | 1.6 | 8.0 | 0.00 | 0.00 | 0.00 | 66 | 1007.0 |
| 20260504170911 | 20 | 205 | 4.8 | 12.9 | 0.00 | 0.00 | 0.00 | 67 | 1007.0 |
| 20260504170407 | 20 | 0 | 0.0 | 6.4 | 0.00 | 0.00 | 0.00 | 69 | 1007.6 |
| 20260504160326 | 20 | 206 | 3.2 | 6.4 | 0.00 | 0.00 | 0.00 | 64 | 1007.8 |
| 20260504150751 | 17 | 234 | 1.6 | 3.2 | 0.00 | 0.00 | 0.00 | 71 | 1007.8 |
| 20260504150247 | 17 | 196 | 8.0 | 12.9 | 0.00 | 0.00 | 0.00 | 68 | 1008.0 |
| 20260504141217 | 17 | 216 | 4.8 | 6.4 | 0.00 | 0.00 | 0.00 | 67 | 1008.6 |
| 20260504140714 | 17 | 45 | 3.2 | 4.8 | 0.00 | 0.00 | 0.00 | 68 | 1008.4 |
| 20260504140209 | 17 | 184 | 3.2 | 14.5 | 0.00 | 0.00 | 0.00 | 69 | 1008.7 |
| 20260504130638 | 13 | 194 | 4.8 | 8.0 | 0.00 | 0.00 | 0.00 | 74 | 1008.8 |
| 20260504130134 | 13 | 201 | 3.2 | 11.3 | 0.00 | 0.00 | 0.00 | 74 | 1008.9 |
| 20260504110526 | 11 | 180 | 4.8 | 6.4 | 0.00 | 0.00 | 0.00 | 73 | 1008.7 |
| 20260504100442 | 10 | 82 | 0.0 | 3.2 | 0.00 | 0.00 | 0.00 | 74 | 1008.9 |
| 20260504081835 | 11 | 201 | 8.0 | 8.0 | 0.00 | 0.00 | 0.00 | 68 | 1009.4 |
| 20260504081332 | 11 | 187 | 1.6 | 8.0 | 0.00 | 0.00 | 0.00 | 68 | 1009.6 |
| 20260504080827 | 11 | 63 | 1.6 | 6.4 | 0.00 | 0.00 | 0.00 | 68 | 1009.4 |
| 20260504080325 | 11 | 191 | 1.6 | 8.0 | 0.00 | 0.00 | 0.00 | 68 | 1009.5 |
| 20260504070252 | 11 | 154 | 0.0 | 8.0 | 0.00 | 0.00 | 0.00 | 67 | 1009.9 |
| 20260504060213 | 11 | 175 | 1.6 | 6.4 | 0.00 | 0.00 | 0.00 | 69 | 1010.9 |
| 20260504050640 | 11 | 180 | 0.0 | 4.8 | 0.00 | 0.00 | 0.00 | 69 | 1011.2 |
| 20260504050137 | 11 | 180 | 0.0 | 4.8 | 0.00 | 0.00 | 0.00 | 69 | 1011.2 |
| 20260504045635 | 11 | 192 | 0.0 | 3.2 | 0.00 | 0.00 | 0.00 | 69 | 1011.3 |
| 20260504045134 | 11 | 180 | 3.2 | 4.8 | 0.00 | 0.00 | 0.00 | 68 | 1011.2 |
| 20260504044633 | 11 | 60 | 0.0 | 6.4 | 0.00 | 0.00 | 0.00 | 68 | 1011.5 |
| 20260504044129 | 11 | 105 | 0.0 | 1.6 | 0.00 | 0.00 | 0.00 | 67 | 1011.5 |
| 20260504043626 | 11 | 180 | 1.6 | 4.8 | 0.00 | 0.00 | 0.00 | 67 | 1011.3 |
| 20260504043124 | 11 | 156 | 0.0 | 3.2 | 0.00 | 0.00 | 0.00 | 66 | 1011.5 |
| 20260504042621 | 11 | 172 | 0.0 | 4.8 | 0.00 | 0.00 | 0.00 | 66 | 1011.4 |
| 20260504042117 | 11 | 175 | 0.0 | 3.2 | 0.00 | 0.00 | 0.00 | 66 | 1011.5 |
| 20260504041613 | 11 | 194 | 3.2 | 4.8 | 0.00 | 0.00 | 0.00 | 65 | 1011.5 |
| 20260504041110 | 11 | 157 | 0.0 | 4.8 | 0.00 | 0.00 | 0.00 | 65 | 1011.7 |
| 20260504040607 | 12 | 139 | 3.2 | 4.8 | 0.00 | 0.00 | 0.00 | 64 | 1011.6 |
| 20260504040103 | 12 | 145 | 0.0 | 4.8 | 0.00 | 0.00 | 0.00 | 63 | 1011.6 |
| 20260504035600 | 12 | 169 | 0.0 | 4.8 | 0.00 | 0.00 | 0.00 | 63 | 1012.0 |
| 20260504035056 | 12 | 191 | 0.0 | 3.2 | 0.00 | 0.00 | 0.00 | 63 | 1011.7 |
| 20260504034555 | 12 | 165 | 1.6 | 4.8 | 0.00 | 0.00 | 0.00 | 63 | 1011.8 |
| 20260504034051 | 12 | 189 | 3.2 | 4.8 | 0.00 | 0.00 | 0.00 | 63 | 1012.1 |
| 20260504033549 | 12 | 188 | 0.0 | 3.2 | 0.00 | 0.00 | 0.00 | 62 | 1012.1 |
| 20260504033046 | 12 | 115 | 0.0 | 4.8 | 0.00 | 0.00 | 0.00 | 62 | 1011.8 |
| 20260504032543 | 12 | 185 | 3.2 | 4.8 | 0.00 | 0.00 | 0.00 | 63 | 1012.1 |
| 20260504032040 | 12 | 180 | 3.2 | 3.2 | 0.00 | 0.00 | 0.00 | 62 | 1012.0 |
| 20260504031537 | 12 | 200 | 6.4 | 6.4 | 0.00 | 0.00 | 0.00 | 61 | 1011.9 |
| 20260504031033 | 12 | 189 | 3.2 | 3.2 | 0.00 | 0.00 | 0.00 | 62 | 1011.8 |
| 20260504030531 | 12 | 180 | 0.0 | 3.2 | 0.00 | 0.00 | 0.00 | 62 | 1012.3 |
| 20260504030027 | 12 | 180 | 0.0 | 3.2 | 0.00 | 0.00 | 0.00 | 62 | 1012.1 |
| 20260504025524 | 12 | 192 | 0.0 | 1.6 | 0.00 | 0.00 | 0.00 | 60 | 1012.5 |
| 20260504025020 | 13 | 81 | 0.0 | 3.2 | 0.00 | 0.00 | 0.00 | 60 | 1012.4 |
| 20260504024518 | 13 | 90 | 0.0 | 0.0 | 0.00 | 0.00 | 0.00 | 59 | 1012.5 |
| 20260504024014 | 13 | 90 | 0.0 | 3.2 | 0.00 | 0.00 | 0.00 | 58 | 1012.3 |
| 20260504023511 | 13 | 131 | 0.0 | 3.2 | 0.00 | 0.00 | 0.00 | 58 | 1012.4 |
| 20260504023007 | 13 | 99 | 0.0 | 4.8 | 0.00 | 0.00 | 0.00 | 57 | 1012.5 |
| 20260504022503 | 13 | 148 | 0.0 | 3.2 | 0.00 | 0.00 | 0.00 | 58 | 1012.5 |
| 20260504022000 | 13 | 166 | 1.6 | 3.2 | 0.00 | 0.00 | 0.00 | 56 | 1012.4 |
| 20260504021457 | 13 | 169 | 0.0 | 3.2 | 0.00 | 0.00 | 0.00 | 56 | 1012.3 |
| 20260504020954 | 13 | 99 | 0.0 | 3.2 | 0.00 | 0.00 | 0.00 | 55 | 1012.1 |
| 20260504020450 | 13 | 191 | 1.6 | 3.2 | 0.00 | 0.00 | 0.00 | 55 | 1012.4 |
| 20260504015947 | 13 | 180 | 0.0 | 6.4 | 0.00 | 0.00 | 0.00 | 54 | 1012.5 |
| 20260504015443 | 13 | 180 | 1.6 | 3.2 | 0.00 | 0.00 | 0.00 | 54 | 1012.5 |
| 20260504014939 | 13 | 180 | 1.6 | 3.2 | 0.00 | 0.00 | 0.00 | 55 | 1012.0 |
| 20260504014436 | 13 | 19 | 0.0 | 3.2 | 0.00 | 0.00 | 0.00 | 53 | 1012.0 |
| 20260504013933 | 13 | 145 | 0.0 | 3.2 | 0.00 | 0.00 | 0.00 | 53 | 1011.9 |
| 20260504013431 | 13 | 165 | 1.6 | 3.2 | 0.00 | 0.00 | 0.00 | 52 | 1011.9 |
| 20260504012927 | 14 | 126 | 0.0 | 4.8 | 0.00 | 0.00 | 0.00 | 52 | 1011.7 |
| 20260504012425 | 13 | 187 | 3.2 | 6.4 | 0.00 | 0.00 | 0.00 | 52 | 1011.6 |
| 20260504011922 | 14 | 186 | 4.8 | 4.8 | 0.00 | 0.00 | 0.00 | 51 | 1011.8 |
| 20260504011419 | 14 | 174 | 0.0 | 4.8 | 0.00 | 0.00 | 0.00 | 51 | 1012.0 |
| 20260504010915 | 14 | 203 | 0.0 | 4.8 | 0.00 | 0.00 | 0.00 | 52 | 1011.6 |